Station BGNN4 - 8519483 - BERGEN POINT WEST REACH- NY

Sailing guide
Sailing guide
english français italiano spagnolo
english français italiano español
Sea - Seek
Station BGNN4 - 8519483 - BERGEN POINT WEST REACH- NY
Station BGNN4 - 8519483 - BERGEN POINT WEST REACH- NY

Weather report - Station BGNN4 - 8519483 - BERGEN POINT WEST REACH- NY

Time Wind speed knots Wind direction Pressure ----
March 6, 2015 10:48 pm EST 1030 Air Temperature:-7
March 6, 2015 9:48 pm EST 1029 Air Temperature:-6.4
March 6, 2015 8:48 pm EST 1023 Air Temperature:-5.7
March 6, 2015 7:48 pm EST 1030 Air Temperature:-5.2
March 6, 2015 6:48 pm EST 1030 Air Temperature:-4.9
March 6, 2015 5:48 pm EST 1034 Air Temperature:-4.5
March 6, 2015 4:48 pm EST 1030 Air Temperature:-2.8
March 6, 2015 3:42 pm EST 1031 Air Temperature:-2.3
March 6, 2015 2:48 pm EST 1031 Air Temperature:-3.2
March 6, 2015 1:48 pm EST 1032 Air Temperature:-3.9
March 6, 2015 11:48 am EST 1034 Air Temperature:-4.1
March 6, 2015 10:48 am EST 1025 Air Temperature:-6
March 6, 2015 9:48 am EST 1035 Air Temperature:-8.3
March 6, 2015 8:42 am EST 1035 Air Temperature:-9.1
March 6, 2015 7:48 am EST 1033 Air Temperature:-9.6
March 6, 2015 7:30 am EST 1034 Air Temperature:-9.7
March 6, 2015 6:48 am EST 1033 Air Temperature:-9.3
March 6, 2015 4:48 am EST 1015
March 6, 2015 3:48 am EST 1031 Air Temperature:-8.9
March 6, 2015 2:48 am EST 1030 Air Temperature:-8.5
March 6, 2015 1:30 am EST 1030 Air Temperature:-7.6
March 5, 2015 10:48 pm EST 1028 Air Temperature:-5.6
March 5, 2015 9:48 pm EST 1027 Air Temperature:-5.4
March 5, 2015 8:48 pm EST 1021 Air Temperature:-5.5